Location: Endfield
(51.6667°N, 0.0667°W)
Time: 01:38:10
(UTC+00:00)

Cosmos 1733 - Pass Details

Date: 19 May 2024
Orbit: 454 x 468 km, 82.5° (Epoch: 16 June)

Event Time Altitude Azimuth Distance (km) Brightness Sun altitude
Rises 21:53:38 0° 353° (N) 2,501 8.0 -13.4°
Reaches altitude 10° 21:55:47 10° 360° (N) 1,618 6.7 -13.6°
Maximum altitude 21:59:12 47° 75° (ENE) 619 3.4 -13.8°
Enters shadow 22:00:50 26° 136° (SE) 944 3.9 -14.0°
